CZ-6A DEB, 54498

Orbit data source: Space-Track

CZ-6A DEB, 54498 is space debris in SSO originally from a launch on Fri, 11 Nov 2022 UTC launched from the Taiyaun Space Center, China (TSC). Debris objects in space refer to the collection of defunct objects orbiting the Earth. Examples of debris include non-operational satellites, rocket bodies, and fragments generated from explosions, collisions, or faulty payload assembly.

Loading next visibility...
Identifier
54498, 2022-151JA
Orbit
SSO
Country
Flag of CNCN / PRC
Related business
Manufacturer
SAST
Mission
Spacecraft
Bus & Motor
Unknown
Mass
Unknown
Launch date (UTC)
2022-11-11 (4 years ago)
Launch vehicle
Unknown
Launch site
Taiyaun Space Center, China (TSC)
Object type
Payload
Rocket body
Debris
Shape & HBR
Unknown shape, 0.1 m
Radar Cross Section
Medium (>0.1 m² and <1 m²)

Expand to show TLE details & history
Last TLE update: 2 days ago

TLE from 2 days ago
0 CZ-6A DEB
1 54498U 22151JA  26252.70440692  .00003764  00000-0  10031-2 0  9997
2 54498  98.7596 310.2247 0024696  74.0530 286.3381 14.48900830200168
Epoch: 2026-09-09T16:54Z
TLE epoch observation values (Epoch: 2026-09-09T16:54:20.757Z)
Latitude
-0.00002°
Longitude
67.88557°
Altitude
727.295 km
Speed
7.494 km/s
True Right ascension
20h 40m 53s
True Declination
0° 00' 00"
Sunlit
Object was in full shadow at epoch
Visualization orbit readout
Latitude
Unknown
Longitude
Unknown
Altitude
Unknown
Speed
Unknown
Apparent Right ascension
Unknown
Apparent Declination
Unknown
Sunlit
N/A
Visualization observer readout
Local Sidereal Time
14:41:19
Azimuth
Unknown
Elevation
Unknown
Doppler factor
Unknown
Orbital elements
Apogee altitude
743.909 km
Perigee altitude
708.818 km
Semi-major axis
7,104.5 km
Eccentricity
0.00247
Inclination
98.7596°
RAAN
310.2247°
Arg. of periapsis
74.053°
True anomaly
286.0663°
Mean anomaly
286.3381°
Eccentric anomaly
286.20222°
Mean motion
3.62446 °/min
Orbital period
99.33 mins
BSTAR
0.0010031
Loading maneuver chart data...
Computing Atmospheric mass density...
Loading historical data...
Loading historical data...
Loading historical data...
Loading historical data...
Loading historical data...
Loading historical data...
Loading historical data...

Documentation

Showing up to 5 results
|